ANZ445 NZAA-NZRO

Flight info

Callsign ANZ445
Flight time 0h 34m
Altitude 16000
Route TULMI H372 ELAGA
Aircraft AT76/M-SDFGIRY/S

Departure

Time 2026-04-16 08:37
Airport Auckland International Airport (NZAA)

Arrival

Time 2026-04-16 09:11
Airport Rotorua Regional Airport (NZRO)
Time Latitude Longitude Altitude Speed Heading
2026-04-16 08:22 -37.00571 174.79379 22 ft 0 kts 243°
2026-04-16 08:33 -37.00629 174.79414 22 ft 11 kts 121°
2026-04-16 08:33 -37.00674 174.79517 21 ft 18 kts 73°
2026-04-16 08:33 -37.00622 174.79708 24 ft 27 kts 71°
2026-04-16 08:34 -37.00547 174.79953 24 ft 24 kts 61°
2026-04-16 08:34 -37.00488 174.80145 25 ft 21 kts 71°
2026-04-16 08:34 -37.00446 174.80324 24 ft 16 kts 100°
2026-04-16 08:34 -37.00548 174.80422 23 ft 22 kts 139°
2026-04-16 08:35 -37.00594 174.80486 25 ft 5 kts 126°
2026-04-16 08:35 -37.00594 174.80487 25 ft 0 kts 126°
2026-04-16 08:36 -37.00649 174.80534 30 ft 23 kts 187°
2026-04-16 08:36 -37.00739 174.80299 27 ft 55 kts 250°
2026-04-16 08:36 -37.00925 174.79611 23 ft 111 kts 250°
2026-04-16 08:36 -37.01253 174.78637 355 ft 122 kts 236°
2026-04-16 08:37 -37.01769 174.77671 569 ft 144 kts 236°
2026-04-16 08:37 -37.02516 174.76865 1169 ft 143 kts 207°
2026-04-16 08:37 -37.03441 174.76427 1794 ft 139 kts 203°
2026-04-16 08:37 -37.04356 174.76118 2299 ft 135 kts 199°
2026-04-16 08:38 -37.05270 174.75883 2722 ft 135 kts 198°
2026-04-16 08:38 -37.06184 174.75671 3134 ft 134 kts 198°
2026-04-16 08:38 -37.07104 174.75445 3523 ft 135 kts 198°
2026-04-16 08:38 -37.08022 174.75214 3932 ft 134 kts 198°
2026-04-16 08:39 -37.08932 174.74978 4342 ft 134 kts 198°
2026-04-16 08:39 -37.09842 174.74742 4750 ft 133 kts 198°
2026-04-16 08:39 -37.10747 174.74505 5125 ft 133 kts 198°
2026-04-16 08:39 -37.11661 174.74267 5517 ft 133 kts 198°
2026-04-16 08:40 -37.12570 174.74031 5892 ft 134 kts 198°
2026-04-16 08:40 -37.13487 174.73791 6250 ft 134 kts 198°
2026-04-16 08:40 -37.14402 174.73551 6621 ft 134 kts 199°
2026-04-16 08:40 -37.15322 174.73316 6966 ft 135 kts 199°
2026-04-16 08:41 -37.16244 174.73074 7298 ft 136 kts 198°
2026-04-16 08:41 -37.17174 174.72838 7621 ft 138 kts 200°
2026-04-16 08:41 -37.18118 174.72586 7964 ft 138 kts 200°
2026-04-16 08:41 -37.19063 174.72334 8294 ft 140 kts 200°
2026-04-16 08:42 -37.20015 174.72085 8620 ft 140 kts 201°
2026-04-16 08:42 -37.21005 174.71988 8937 ft 153 kts 175°
2026-04-16 08:42 -37.22042 174.72495 9124 ft 163 kts 171°
2026-04-16 08:42 -37.23109 174.72983 9441 ft 164 kts 173°
2026-04-16 08:43 -37.24173 174.73443 9753 ft 165 kts 173°
2026-04-16 08:43 -37.25263 174.73903 10063 ft 165 kts 174°
2026-04-16 08:43 -37.26359 174.74359 10355 ft 166 kts 174°
2026-04-16 08:43 -37.27456 174.74811 10643 ft 166 kts 174°
2026-04-16 08:44 -37.28574 174.75266 10904 ft 169 kts 174°
2026-04-16 08:44 -37.29696 174.75722 11195 ft 170 kts 175°
2026-04-16 08:44 -37.30820 174.76182 11486 ft 170 kts 174°
2026-04-16 08:44 -37.31949 174.76644 11773 ft 171 kts 175°
2026-04-16 08:45 -37.33084 174.77111 12058 ft 172 kts 175°
2026-04-16 08:45 -37.34222 174.77581 12341 ft 172 kts 175°
2026-04-16 08:45 -37.35366 174.78049 12617 ft 174 kts 175°
2026-04-16 08:45 -37.36530 174.78522 12925 ft 177 kts 175°
2026-04-16 08:46 -37.37703 174.79003 13234 ft 178 kts 175°
2026-04-16 08:46 -37.38862 174.79481 13512 ft 178 kts 175°
2026-04-16 08:46 -37.40033 174.80072 13782 ft 193 kts 155°
2026-04-16 08:46 -37.40836 174.81547 13998 ft 218 kts 118°
2026-04-16 08:47 -37.41193 174.83453 14213 ft 227 kts 105°
2026-04-16 08:47 -37.41343 174.85440 14315 ft 230 kts 100°
2026-04-16 08:47 -37.41423 174.87463 14539 ft 232 kts 98°
2026-04-16 08:47 -37.41495 174.89511 14698 ft 237 kts 99°
2026-04-16 08:48 -37.41582 174.91590 14931 ft 238 kts 100°
2026-04-16 08:48 -37.41699 174.93669 15137 ft 238 kts 101°
2026-04-16 08:48 -37.41838 174.95745 15345 ft 239 kts 102°
2026-04-16 08:48 -37.41981 174.97838 15537 ft 240 kts 102°
2026-04-16 08:49 -37.42123 174.99932 15752 ft 240 kts 102°
2026-04-16 08:49 -37.42278 175.02037 15883 ft 241 kts 107°
2026-04-16 08:49 -37.42827 175.03972 15939 ft 236 kts 127°
2026-04-16 08:49 -37.43637 175.05795 15965 ft 241 kts 132°
2026-04-16 08:50 -37.44566 175.07588 15973 ft 247 kts 134°
2026-04-16 08:50 -37.45328 175.09590 15982 ft 265 kts 110°
2026-04-16 08:50 -37.45510 175.11958 15984 ft 277 kts 95°
2026-04-16 08:50 -37.45426 175.14367 15982 ft 283 kts 90°
2026-04-16 08:51 -37.45278 175.16898 15983 ft 287 kts 90°
2026-04-16 08:51 -37.45144 175.19420 15982 ft 290 kts 91°
2026-04-16 08:51 -37.45056 175.21974 15982 ft 293 kts 92°
2026-04-16 08:51 -37.44995 175.24544 15985 ft 294 kts 93°
2026-04-16 08:52 -37.44957 175.27091 15997 ft 297 kts 93°
2026-04-16 08:52 -37.44916 175.29697 15977 ft 297 kts 94°
2026-04-16 08:52 -37.44880 175.32305 15988 ft 299 kts 94°
2026-04-16 08:52 -37.44832 175.34927 15987 ft 300 kts 92°
2026-04-16 08:53 -37.44775 175.37557 15980 ft 299 kts 95°
2026-04-16 08:53 -37.45212 175.40023 15960 ft 283 kts 122°
2026-04-16 08:53 -37.46098 175.42216 15970 ft 278 kts 129°
2026-04-16 08:53 -37.47200 175.44182 15977 ft 273 kts 140°
2026-04-16 08:54 -37.48479 175.45929 15978 ft 271 kts 144°
2026-04-16 08:54 -37.49813 175.47618 15972 ft 272 kts 144°
2026-04-16 08:54 -37.51144 175.49318 15973 ft 273 kts 144°
2026-04-16 08:54 -37.52452 175.51053 15975 ft 274 kts 143°
2026-04-16 08:55 -37.53756 175.52826 15788 ft 282 kts 142°
2026-04-16 08:55 -37.55107 175.54661 15399 ft 296 kts 141°
2026-04-16 08:55 -37.56552 175.56620 15047 ft 305 kts 141°
2026-04-16 08:55 -37.57990 175.58576 14721 ft 311 kts 141°
2026-04-16 08:56 -37.59471 175.60594 14412 ft 316 kts 141°
2026-04-16 08:56 -37.60970 175.62638 14110 ft 319 kts 141°
2026-04-16 08:56 -37.62482 175.64699 13819 ft 321 kts 141°
2026-04-16 08:56 -37.63997 175.66770 13640 ft 318 kts 141°
2026-04-16 08:57 -37.65486 175.68807 13445 ft 317 kts 141°
2026-04-16 08:57 -37.66993 175.70858 13147 ft 319 kts 140°
2026-04-16 08:57 -37.68471 175.72876 12893 ft 306 kts 141°
2026-04-16 08:57 -37.69887 175.74817 12622 ft 295 kts 141°
2026-04-16 08:58 -37.71260 175.76700 12332 ft 287 kts 141°
2026-04-16 08:58 -37.72602 175.78533 12034 ft 281 kts 141°
2026-04-16 08:58 -37.73918 175.80331 11734 ft 277 kts 141°
2026-04-16 08:58 -37.75217 175.82105 11438 ft 273 kts 141°
2026-04-16 08:59 -37.76391 175.83956 11136 ft 274 kts 133°
2026-04-16 08:59 -37.77461 175.85947 10844 ft 273 kts 131°
2026-04-16 08:59 -37.78480 175.88007 10568 ft 273 kts 127°
2026-04-16 08:59 -37.79366 175.90136 10311 ft 274 kts 123°
2026-04-16 09:00 -37.80170 175.92279 10035 ft 272 kts 122°
2026-04-16 09:00 -37.80953 175.94453 9734 ft 271 kts 121°
2026-04-16 09:00 -37.81448 175.95927 9501 ft 271 kts 116°
2026-04-16 09:00 -37.82058 175.99072 8783 ft 283 kts 107°
2026-04-16 09:01 -37.82747 176.03217 7875 ft 290 kts 109°
2026-04-16 09:01 -37.83238 176.05694 7371 ft 291 kts 111°
2026-04-16 09:01 -37.83782 176.08173 6847 ft 293 kts 112°
2026-04-16 09:02 -37.84310 176.10625 6332 ft 293 kts 112°
2026-04-16 09:02 -37.84858 176.13139 5774 ft 293 kts 112°
2026-04-16 09:02 -37.85394 176.15582 5409 ft 288 kts 112°
2026-04-16 09:02 -37.85915 176.17997 5102 ft 281 kts 112°
2026-04-16 09:03 -37.86404 176.20331 5053 ft 269 kts 111°
2026-04-16 09:03 -37.86846 176.22571 5017 ft 258 kts 111°
2026-04-16 09:03 -37.87270 176.24723 5033 ft 244 kts 112°
2026-04-16 09:03 -37.87685 176.26738 5024 ft 229 kts 114°
2026-04-16 09:04 -37.88088 176.28640 5020 ft 218 kts 114°
2026-04-16 09:04 -37.88474 176.30469 5024 ft 211 kts 114°
2026-04-16 09:04 -37.88844 176.32245 5034 ft 207 kts 114°
2026-04-16 09:04 -37.89281 176.33941 5047 ft 197 kts 124°
2026-04-16 09:05 -37.89873 176.35491 5038 ft 194 kts 128°
2026-04-16 09:05 -37.90498 176.36975 5032 ft 188 kts 131°
2026-04-16 09:05 -37.91126 176.38426 5032 ft 186 kts 132°
2026-04-16 09:05 -37.91778 176.39834 5039 ft 182 kts 136°
2026-04-16 09:06 -37.92677 176.40679 5021 ft 148 kts 183°
2026-04-16 09:06 -37.93659 176.40671 5029 ft 140 kts 195°
2026-04-16 09:06 -37.94616 176.40480 5024 ft 138 kts 202°
2026-04-16 09:06 -37.95526 176.40121 4996 ft 137 kts 208°
2026-04-16 09:07 -37.96445 176.39665 4778 ft 150 kts 206°
2026-04-16 09:07 -37.97469 176.39227 4533 ft 158 kts 206°
2026-04-16 09:07 -37.98459 176.38792 4291 ft 143 kts 207°
2026-04-16 09:07 -37.99358 176.38354 4032 ft 134 kts 210°
2026-04-16 09:08 -38.00181 176.37917 3774 ft 122 kts 210°
2026-04-16 09:08 -38.00934 176.37500 3554 ft 115 kts 211°
2026-04-16 09:08 -38.01657 176.37077 3360 ft 113 kts 212°
2026-04-16 09:08 -38.02369 176.36647 3157 ft 113 kts 212°
2026-04-16 09:09 -38.03077 176.36217 2961 ft 113 kts 211°
2026-04-16 09:09 -38.03790 176.35783 2767 ft 114 kts 212°
2026-04-16 09:09 -38.04515 176.35345 2562 ft 116 kts 212°
2026-04-16 09:09 -38.05253 176.34901 2367 ft 118 kts 212°
2026-04-16 09:10 -38.06022 176.34466 2038 ft 125 kts 209°
2026-04-16 09:10 -38.06839 176.33996 1787 ft 126 kts 209°
2026-04-16 09:10 -38.07639 176.33510 1539 ft 127 kts 209°
2026-04-16 09:10 -38.08426 176.33021 1374 ft 125 kts 207°
2026-04-16 09:11 -38.09205 176.32546 1182 ft 125 kts 209°
2026-04-16 09:11 -38.09978 176.32067 1015 ft 121 kts 210°
2026-04-16 09:11 -38.10638 176.31679 944 ft 65 kts 208°
2026-04-16 09:11 -38.10810 176.31578 946 ft 17 kts 202°
2026-04-16 09:12 -38.10894 176.31549 946 ft 4 kts 154°
2026-04-16 09:12 -38.10917 176.31587 945 ft 7 kts 113°
2026-04-16 09:12 -38.10929 176.31615 946 ft 6 kts 130°
2026-04-16 09:12 -38.10975 176.31650 944 ft 9 kts 127°
2026-04-16 09:13 -38.10981 176.31664 944 ft 0 kts 114°